Voltar ao catálogo

STARLINK-2104

AtivoComunicaçõesVLEO
NORAD 47384·PAYLOAD·🇺🇸 United States

Lançado Jan 20, 2021 de Cape Canaveral Space Force Station

Loading…

Próximas Passagens (próximas 24 horas)

TLE

AtualizadoSource: CelesTrak SupGP

Época: Sep 15, 2026, 02:40 UTC

1 47384C 21005AM  26258.11159722 -.00021968  00000+0 -70657-3 0  2588
2 47384  53.1581 235.9046 0001351  96.0441 164.5199 15.31706384    18

Acompanhe STARLINK-2104 em tempo real com AllMySat

Download on the App Store